Nur fliegen ist schöner ....

Willkommen beim Flugservice Bautzen GmbH

Wir sind eine nach europäischen Richtlinien zugelassene Flugschule und lizenziertes Luftfahrtunternehmen. Bei uns können sie nicht nur Rundflüge über die Oberlausitz oder Sachsen buchen, sondern in unserer Flugschule selber das Fliegen erlernen. Erfahrene Fluglehrer stehen ihnen dabei zur Seite.

Wir bieten Ihnen außerdem spezielle Flüge zur Vermessung oder Fotoflüge für Luftbildaufnahmen an. In Zusammenarbeit mit dem Fallschirmsportclub Dresden und dem Cottbuser Fallschirmsportclub setzen wir am Flugplatz Bautzen und Neuhausen Fallschirmspringer ab.
Schauen sie sich in Ruhe bei uns um und wenn sie Fragen haben oder weitere Informationen benötigen, scheuen sie sich nicht Kontakt mit uns aufzunehmen.

Rundflüge können sie ganz leicht auch online in unserem Shop buchen.

Terminkalender

Letzter Monat Oktober 2018 Nächster Monat
Mo Di Mi Do Fr Sa So
week 40 1 2 3 4 5 6 7
week 41 8 9 10 11 12 13 14
week 42 15 16 17 18 19 20 21
week 43 22 23 24 25 26 27 28
week 44 29 30 31

Flugwetterinfo

[Quelle: ADDS]
METAR
EDDC 182050Z VRB02KT 1400 R04/P2000N BR BKN002 11/11 Q1023 =
EDDC 181700Z 1818/1918 34005KT 5000 BR BKN008 TEMPO 1818/1909 2500 BR BKN004 PROB30 TEMPO 1900/1909 1200 -DZ BR BKN001 BECMG 1908/1910 BKN010 BECMG 1910/1912 SCT012 BKN025
TAF
EDDC 181700Z 1818/1918 34005KT 5000 BR BKN008 TEMPO 1818/1909 2500 BR BKN004 PROB30 TEMPO 1900/1909 1200 -DZ BR BKN001 BECMG 1908/1910 BKN010 BECMG 1910/1912 SCT012 BKN025 =
SR / SS: 05:31 / 16:02 UTC (EDAB Flugplatz Bautzen 2018-10-18)

Webcam EDAB

Webcam EDAB
Flugservice Bautzen GmbH, Kornmarkt 34, 02625 Bautzen  Telefon: +49 (3591) 211105, Telefax: +49 (3591) 274512, E-Mail:  flugservice(at)fsbautzen.de